User: anonymous   Login
Location: Oshawa
(43.9000°N, 78.8670°W)
Time: 03:46:25
(UTC-04:00)
Language:

PAYLOAD A - Orbit

View from above orbital plane
View from above orbital plane
View from above satellite
View from above satellite

Ground track
Ground track

The orbit data is extracted from the following two-line orbital elements,

1 27840U 03031A   14296.16734167  .00000137  00000-0  55452-4 0  6808
2 27840 098.2265 319.6009 0099283 156.3388 283.1717 14.38733762594111
Epoch (UTC): 23 October 2014 04:00:58
Eccentricity: 0.0099283
inclination: 98.2265°
perigee height: 692 km
apogee height: 833 km
right ascension of ascending node: 319.6009°
argument of perigee: 156.3388°
revolutions per day: 14.38733762
mean anomaly at epoch: 283.1717°
orbit number at epoch: 59411

The dashed part of the orbit path shows where the satellite is in the earth's shadow,  

DLR